This is the latest recevied weather packets stored in our database for station/object ZS1DFR-1. If no packets are shown the sender has not sent any weather packets the latest 10 day(s).
| Time | Temp. | Humidity | Pressure | Rain* | Wind** | Luminosity | Snow |
|---|---|---|---|---|---|---|---|
| 1777881211 | 13.89° C | 99% | 1012.1 hPa | 0 mm | - | - | - |
| 1777880311 | 13.89° C | 99% | 1012.1 hPa | 0 mm | - | - | - |
| 1777879411 | 14.44° C | 99% | 1011.9 hPa | 0.51 mm | - | - | - |
| 1777878511 | 14.44° C | 99% | 1011.9 hPa | 0.51 mm | - | - | - |
| 1777877611 | 14.44° C | 99% | 1010.9 hPa | 0 mm | - | - | - |
| 1777876711 | 14.44° C | 99% | 1010.9 hPa | 0 mm | - | - | - |
| 1777875811 | 14.44° C | 99% | 1010.9 hPa | 0 mm | - | - | - |
| 1777874911 | 14.44° C | 99% | 1010.9 hPa | 0 mm | - | - | - |
| 1777874011 | 14.44° C | 99% | 1010.7 hPa | 0 mm | - | - | - |
| 1777873111 | 14.44° C | 99% | 1010.7 hPa | 0 mm | - | - | - |
| 1777872211 | 15° C | 99% | 1010.8 hPa | 0 mm | - | - | - |
| 1777871311 | 15° C | 99% | 1010.8 hPa | 0 mm | - | - | - |
| 1777870411 | 15.56° C | 99% | 1010.7 hPa | 0.51 mm | - | - | - |
| 1777869511 | 15.56° C | 99% | 1010.7 hPa | 0.51 mm | - | - | - |
| 1777868611 | 15° C | 99% | 1010.4 hPa | 0.51 mm | - | - | - |
| 1777867711 | 15° C | 99% | 1010.4 hPa | 0.51 mm | - | - | - |
| 1777866811 | 15.56° C | 99% | 1010.4 hPa | 0.51 mm | - | - | - |
| 1777865911 | 15.56° C | 99% | 1010.4 hPa | 0.51 mm | - | - | - |
| 1777865011 | 15.56° C | 99% | 1010.2 hPa | 1.02 mm | - | - | - |
| 1777864111 | 15.56° C | 99% | 1010.2 hPa | 1.02 mm | - | - | - |
| 1777863211 | 16.11° C | 99% | 1010 hPa | 1.78 mm | - | - | - |
| 1777862311 | 16.11° C | 99% | 1010 hPa | 1.78 mm | - | - | - |
| 1777861411 | 16.11° C | 98% | 1009.8 hPa | 1.02 mm | - | - | - |
| 1777860511 | 16.11° C | 98% | 1009.8 hPa | 1.02 mm | - | - | - |
| 1777859611 | 16.11° C | 98% | 1009.6 hPa | 0 mm | - | - | - |
* Rain latest hour (hover to see other rain measurements)
** Current wind speed in m/s (hover to see current wind gust speed)